When you browse on this site, cookies collect data to enhance your experience and personalize the content and advertising you see.
Visit our Privacy Policy to learn more. By continuing to use the site, you agree to this use of cookies and data.
  • In Czech Republic
  • List of Countries
  • For 7 days
  • Water Temperature
  • Satellite Maps
  • Weather Map
  • Weather Widgets
  • user-avatar
    Login

    Hourly Weather Owensboro

    Today, 10 December, Monday

    Time Temperature Precipitation Wind Pressure Humidity
    00:00 -4°C° 0 mm 3 mps 757 mmHg 76%
    01:00 -5°C° 0 mm 3 mps 757 mmHg 77%
    02:00 -4°C° 0 mm 2 mps 757 mmHg 77%
    03:00 -4°C° 0 mm 2 mps 757 mmHg 77%
    04:00 -5°C° 0 mm 2 mps 757 mmHg 76%
    05:00 -5°C° 0 mm 2 mps 757 mmHg 75%
    06:00 -5°C° 0 mm 2 mps 757 mmHg 73%
    07:00 -4°C° 0 mm 2 mps 758 mmHg 66%
    08:00 -3°C° 0 mm 2 mps 758 mmHg 59%
    09:00 -2°C° 0 mm 2 mps 758 mmHg 52%
    10:00 +1°C° 0 mm 2 mps 758 mmHg 46%
    11:00 +3°C° 0 mm 2 mps 758 mmHg 41%
    12:00 +4°C° 0 mm 2 mps 758 mmHg 35%
    13:00 +4°C° 0 mm 2 mps 757 mmHg 37%
    14:00 +4°C° 0 mm 2 mps 757 mmHg 39%
    15:00 +5°C° 0 mm 2 mps 757 mmHg 41%
    16:00 +3°C° 0 mm 2 mps 757 mmHg 47%
    17:00 +1°C° 0 mm 2 mps 758 mmHg 54%
    18:00 -2°C° 0 mm 2 mps 758 mmHg 60%
    19:00 -1°C° 0 mm 1 mps 758 mmHg 61%
    20:00 -1°C° 0 mm 1 mps 758 mmHg 62%
    21:00 -1°C° 0 mm 1 mps 759 mmHg 64%
    22:00 -2°C° 0 mm 1 mps 758 mmHg 64%
    23:00 -2°C° 0 mm 1 mps 758 mmHg 64%

    Tomorrow, 11 December, Tuesday

    Time Temperature Precipitation Wind Pressure Humidity
    00:00 -2°C° 0 mm 1 mps 758 mmHg 64%
    01:00 -2°C° 0 mm 1 mps 758 mmHg 64%
    02:00 -2°C° 0 mm 1 mps 758 mmHg 64%
    03:00 -4°C° 0 mm 2 mps 758 mmHg 64%
    04:00 -4°C° 0 mm 2 mps 758 mmHg 63%
    05:00 -4°C° 0 mm 2 mps 758 mmHg 63%
    06:00 -4°C° 0 mm 2 mps 758 mmHg 63%
    07:00 -3°C° 0 mm 2 mps 758 mmHg 57%
    08:00 -2°C° 0 mm 3 mps 759 mmHg 52%
    09:00 0°C° 0 mm 3 mps 759 mmHg 47%
    10:00 +1°C° 0 mm 4 mps 758 mmHg 45%
    11:00 +3°C° 0 mm 4 mps 758 mmHg 43%
    12:00 +5°C° 0 mm 4 mps 757 mmHg 40%
    13:00 +5°C° 0 mm 4 mps 756 mmHg 43%
    14:00 +6°C° 0 mm 4 mps 756 mmHg 46%
    15:00 +6°C° 0 mm 4 mps 755 mmHg 48%
    16:00 +4°C° 0 mm 4 mps 756 mmHg 56%
    17:00 +2°C° 0 mm 3 mps 756 mmHg 63%
    18:00 +1°C° 0 mm 3 mps 756 mmHg 70%
    19:00 0°C° 0 mm 3 mps 756 mmHg 73%
    20:00 0°C° 0 mm 3 mps 756 mmHg 77%
    21:00 -1°C° 0 mm 3 mps 756 mmHg 80%
    22:00 0°C° 0 mm 3 mps 756 mmHg 80%
    23:00 0°C° 0 mm 3 mps 755 mmHg 81%

    Day after tomorrow, 12 December, Wednesday

    Time Temperature Precipitation Wind Pressure Humidity
    00:00 0°C° 0 mm 3 mps 755 mmHg 82%
    01:00 0°C° 0 mm 3 mps 755 mmHg 82%
    02:00 0°C° 0 mm 3 mps 755 mmHg 82%
    03:00 +1°C° 0 mm 3 mps 755 mmHg 82%
    04:00 +1°C° 0 mm 3 mps 754 mmHg 82%
    05:00 0°C° 0 mm 4 mps 754 mmHg 81%
    06:00 0°C° 0 mm 4 mps 754 mmHg 81%
    07:00 +1°C° 0 mm 4 mps 754 mmHg 78%
    08:00 +1°C° 0 mm 5 mps 754 mmHg 74%
    09:00 +2°C° 0 mm 5 mps 754 mmHg 71%
    10:00 +4°C° 0 mm 6 mps 753 mmHg 67%
    11:00 +5°C° 0 mm 6 mps 753 mmHg 63%
    12:00 +8°C° 0 mm 6 mps 752 mmHg 60%
    13:00 +8°C° 0 mm 6 mps 752 mmHg 61%
    14:00 +9°C° 0 mm 5 mps 752 mmHg 63%
    15:00 +9°C° 0 mm 5 mps 752 mmHg 64%
    16:00 +8°C° 0 mm 4 mps 752 mmHg 68%
    17:00 +8°C° 0 mm 4 mps 752 mmHg 71%
    18:00 +8°C° 0 mm 3 mps 752 mmHg 75%
    19:00 +8°C° 0 mm 3 mps 753 mmHg 74%
    20:00 +7°C° 0 mm 4 mps 753 mmHg 73%
    21:00 +6°C° 0 mm 4 mps 753 mmHg 72%
    22:00 +6°C° 0 mm 4 mps 753 mmHg 73%
    23:00 +6°C° 0 mm 4 mps 753 mmHg 74%

    13 December, Thursday

    Time Temperature Precipitation Wind Pressure Humidity
    00:00 +6°C° 0 mm 4 mps 753 mmHg 74%
    01:00 +6°C° 0 mm 4 mps 753 mmHg 75%
    02:00 +6°C° 0 mm 4 mps 753 mmHg 76%
    03:00 +6°C° 0 mm 4 mps 752 mmHg 77%
    04:00 +6°C° 0.5 mm 4 mps 752 mmHg 80%
    05:00 +5°C° 0.5 mm 4 mps 752 mmHg 83%
    06:00 +5°C° 0.5 mm 4 mps 752 mmHg 86%
    07:00 +6°C° 1.7 mm 5 mps 753 mmHg 88%
    08:00 +6°C° 1.7 mm 5 mps 753 mmHg 90%
    09:00 +6°C° 1.7 mm 5 mps 753 mmHg 92%
    10:00 +7°C° 0.9 mm 5 mps 752 mmHg 89%
    11:00 +8°C° 0.9 mm 5 mps 752 mmHg 87%
    12:00 +9°C° 0.9 mm 5 mps 751 mmHg 85%
    13:00 +9°C° 0.8 mm 5 mps 751 mmHg 85%
    14:00 +10°C° 0.8 mm 4 mps 750 mmHg 86%
    15:00 +10°C° 0.8 mm 4 mps 749 mmHg 86%
    16:00 +10°C° 0.1 mm 4 mps 749 mmHg 84%
    17:00 +9°C° 0.1 mm 5 mps 749 mmHg 81%
    18:00 +9°C° 0.1 mm 5 mps 749 mmHg 79%
    19:00 +9°C° 0.2 mm 6 mps 748 mmHg 77%
    20:00 +8°C° 0.2 mm 6 mps 748 mmHg 75%
    21:00 +8°C° 0.2 mm 6 mps 747 mmHg 72%
    22:00 +8°C° 2 mm 7 mps 746 mmHg 77%
    23:00 +8°C° 2 mm 7 mps 745 mmHg 82%

    14 December, Friday

    Time Temperature Precipitation Wind Pressure Humidity
    00:00 +9°C° 2 mm 8 mps 744 mmHg 87%
    01:00 +9°C° 3.6 mm 7 mps 744 mmHg 88%
    02:00 +9°C° 3.6 mm 6 mps 743 mmHg 90%
    03:00 +10°C° 3.6 mm 5 mps 743 mmHg 92%
    04:00 +10°C° 2 mm 5 mps 742 mmHg 92%
    05:00 +10°C° 2 mm 5 mps 742 mmHg 92%
    06:00 +11°C° 2 mm 4 mps 742 mmHg 93%
    07:00 +11°C° 0.5 mm 4 mps 742 mmHg 91%
    08:00 +11°C° 0.5 mm 4 mps 743 mmHg 88%
    09:00 +10°C° 0.5 mm 5 mps 743 mmHg 86%
    10:00 +11°C° 0 mm 4 mps 743 mmHg 81%
    11:00 +11°C° 0 mm 4 mps 742 mmHg 75%
    12:00 +11°C° 0 mm 4 mps 742 mmHg 70%
    13:00 +10°C° 0 mm 4 mps 742 mmHg 71%
    14:00 +10°C° 0 mm 3 mps 743 mmHg 72%
    15:00 +9°C° 0 mm 3 mps 743 mmHg 73%
    16:00 +9°C° 0 mm 2 mps 743 mmHg 76%
    17:00 +9°C° 0 mm 1 mps 744 mmHg 79%
    18:00 +9°C° 0 mm 1 mps 744 mmHg 81%
    19:00 +8°C° 0 mm 1 mps 744 mmHg 82%
    20:00 +8°C° 0 mm 1 mps 744 mmHg 84%
    21:00 +7°C° 0 mm 0 mps 745 mmHg 85%
    22:00 +7°C° 0 mm 1 mps 745 mmHg 86%
    23:00 +7°C° 0 mm 1 mps 745 mmHg 87%

    15 December, Saturday

    Time Temperature Precipitation Wind Pressure Humidity
    00:00 +7°C° 0 mm 1 mps 745 mmHg 88%
    01:00 +6°C° 0 mm 2 mps 745 mmHg 88%
    02:00 +6°C° 0 mm 2 mps 745 mmHg 89%
    03:00 +6°C° 0 mm 2 mps 745 mmHg 89%
    04:00 +5°C° 0.1 mm 3 mps 745 mmHg 90%
    05:00 +5°C° 0.1 mm 3 mps 745 mmHg 91%
    06:00 +5°C° 0.1 mm 4 mps 745 mmHg 92%
    07:00 +5°C° 0.6 mm 4 mps 746 mmHg 91%
    08:00 +6°C° 0.6 mm 5 mps 746 mmHg 90%
    09:00 +6°C° 0.6 mm 5 mps 746 mmHg 90%
    10:00 +6°C° 0.1 mm 5 mps 746 mmHg 88%
    11:00 +7°C° 0.1 mm 5 mps 746 mmHg 85%
    12:00 +7°C° 0.1 mm 5 mps 746 mmHg 83%
    13:00 +7°C° 0 mm 5 mps 747 mmHg 83%
    14:00 +7°C° 0 mm 5 mps 747 mmHg 83%
    15:00 +7°C° 0 mm 5 mps 747 mmHg 83%
    16:00 +7°C° 0 mm 5 mps 748 mmHg 84%
    17:00 +6°C° 0 mm 5 mps 749 mmHg 84%
    18:00 +6°C° 0 mm 4 mps 750 mmHg 84%
    19:00 +5°C° 0 mm 4 mps 750 mmHg 85%
    20:00 +4°C° 0 mm 4 mps 751 mmHg 86%
    21:00 +3°C° 0 mm 3 mps 751 mmHg 86%
    22:00 +3°C° 0 mm 3 mps 752 mmHg 86%
    23:00 +2°C° 0 mm 3 mps 752 mmHg 86%
    Show more